Retour au catalogue

CZ-6A DEB

ActifPO
NORAD 64643·DEBRIS·🇨🇳 China

Lancé Aug 6, 2024 depuis Taiyuan Satellite Launch Center

Loading…

Prochains Passages (prochaines 24 heures)

TLE

FraisSource: Space-Track

Époque: Sep 14, 2026, 11:31 UTC

1 64643U 24140AEH 26257.48002502  .00001674  00000-0  66101-3 0  9992
2 64643  89.1402 276.9539 0069737 295.0942  64.3026 14.27355488102734

Suivez CZ-6A DEB en temps réel avec AllMySat

Download on the App Store